Information on these data can be found in provided Readme document
Contact Info: Zachary Fasnacht (zachary.fasnacht@ssaihq.com); Nickolay Krotkov (nickolay.a.krotkov@nasa.gov); Lok Lamsal (lok.lamsal@nasa.gov)

FillValue: -999.
ScaleFactor: 1e15
Units: molecules/cm^2

Date(yyyy-mm-dd),City,Country,LonCenter,LatCenter,BoundingCoordinates,Median,Q1,Q3,Mean,Baseline_Median,Baseline_Q1,Baseline_Q3,Baseline_Mean,NumGoodSamples,NumTotalSamples
2015-01-01,Kingston,Jamaica,-76.8167,17.9833,[-77.3167 17.4833 -76.3167 18.4833],0.747,0.366,1.273,0.92,0.737,0.348,1.225,0.868,188.0,542.0
2015-01-02,Kingston,Jamaica,-76.8167,17.9833,[-77.3167 17.4833 -76.3167 18.4833],0.742,0.366,1.191,0.904,0.736,0.337,1.225,0.868,197.0,524.0
2015-01-03,Kingston,Jamaica,-76.8167,17.9833,[-77.3167 17.4833 -76.3167 18.4833],0.742,0.366,1.182,0.907,0.734,0.331,1.221,0.866,179.0,548.0
2015-01-04,Kingston,Jamaica,-76.8167,17.9833,[-77.3167 17.4833 -76.3167 18.4833],0.643,0.329,1.165,0.864,0.728,0.3,1.217,0.875,194.0,519.0
2015-01-05,Kingston,Jamaica,-76.8167,17.9833,[-77.3167 17.4833 -76.3167 18.4833],0.663,0.342,1.166,0.885,0.737,0.314,1.243,0.879,185.0,539.0
2015-01-06,Kingston,Jamaica,-76.8167,17.9833,[-77.3167 17.4833 -76.3167 18.4833],0.618,0.325,1.152,0.85,0.727,0.3,1.266,0.883,182.0,529.0
2015-01-07,Kingston,Jamaica,-76.8167,17.9833,[-77.3167 17.4833 -76.3167 18.4833],0.663,0.342,1.165,0.894,0.721,0.292,1.311,0.893,197.0,543.0
2015-01-08,Kingston,Jamaica,-76.8167,17.9833,[-77.3167 17.4833 -76.3167 18.4833],0.642,0.329,1.151,0.842,0.716,0.272,1.322,0.882,187.0,536.0
2015-01-09,Kingston,Jamaica,-76.8167,17.9833,[-77.3167 17.4833 -76.3167 18.4833],0.642,0.329,1.151,0.842,0.692,0.283,1.267,0.869,187.0,497.0
2015-01-10,Kingston,Jamaica,-76.8167,17.9833,[-77.3167 17.4833 -76.3167 18.4833],0.642,0.325,1.128,0.831,0.714,0.308,1.266,0.888,168.0,514.0
2015-01-11,Kingston,Jamaica,-76.8167,17.9833,[-77.3167 17.4833 -76.3167 18.4833],0.675,0.342,1.165,0.844,0.728,0.303,1.27,0.888,184.0,486.0
2015-01-12,Kingston,Jamaica,-76.8167,17.9833,[-77.3167 17.4833 -76.3167 18.4833],0.606,0.21,1.327,0.85,0.742,0.279,1.387,0.931,153.0,503.0
2015-01-13,Kingston,Jamaica,-76.8167,17.9833,[-77.3167 17.4833 -76.3167 18.4833],0.591,0.213,1.255,0.824,0.734,0.265,1.372,0.911,177.0,486.0
2015-01-14,Kingston,Jamaica,-76.8167,17.9833,[-77.3167 17.4833 -76.3167 18.4833],0.701,0.254,1.182,0.809,0.781,0.272,1.321,0.904,154.0,510.0
2015-01-15,Kingston,Jamaica,-76.8167,17.9833,[-77.3167 17.4833 -76.3167 18.4833],0.563,0.228,1.089,0.745,0.743,0.283,1.272,0.884,148.0,500.0
2015-01-16,Kingston,Jamaica,-76.8167,17.9833,[-77.3167 17.4833 -76.3167 18.4833],0.591,0.228,1.199,0.799,0.693,0.27,1.276,0.863,177.0,508.0
2015-01-17,Kingston,Jamaica,-76.8167,17.9833,[-77.3167 17.4833 -76.3167 18.4833],0.584,0.189,1.312,0.812,0.665,0.238,1.299,0.842,168.0,513.0
2015-01-18,Kingston,Jamaica,-76.8167,17.9833,[-77.3167 17.4833 -76.3167 18.4833],0.584,0.184,1.255,0.799,0.689,0.254,1.306,0.851,184.0,493.0
2015-01-19,Kingston,Jamaica,-76.8167,17.9833,[-77.3167 17.4833 -76.3167 18.4833],0.644,0.228,1.336,0.84,0.7,0.231,1.292,0.839,169.0,515.0
2015-01-20,Kingston,Jamaica,-76.8167,17.9833,[-77.3167 17.4833 -76.3167 18.4833],0.723,0.24,1.376,0.872,0.688,0.24,1.3,0.84,178.0,485.0
2015-01-21,Kingston,Jamaica,-76.8167,17.9833,[-77.3167 17.4833 -76.3167 18.4833],0.8,0.267,1.54,0.924,0.699,0.246,1.309,0.839,164.0,503.0
2015-01-22,Kingston,Jamaica,-76.8167,17.9833,[-77.3167 17.4833 -76.3167 18.4833],0.723,0.26,1.389,0.883,0.706,0.257,1.285,0.839,140.0,491.0
2015-01-23,Kingston,Jamaica,-76.8167,17.9833,[-77.3167 17.4833 -76.3167 18.4833],0.7,0.254,1.389,0.922,0.69,0.258,1.292,0.848,153.0,509.0
2015-01-24,Kingston,Jamaica,-76.8167,17.9833,[-77.3167 17.4833 -76.3167 18.4833],0.665,0.228,1.414,0.897,0.745,0.236,1.355,0.893,166.0,539.0
2015-01-25,Kingston,Jamaica,-76.8167,17.9833,[-77.3167 17.4833 -76.3167 18.4833],0.665,0.184,1.414,0.872,0.717,0.249,1.343,0.874,187.0,533.0
2015-01-26,Kingston,Jamaica,-76.8167,17.9833,[-77.3167 17.4833 -76.3167 18.4833],0.626,0.145,1.376,0.862,0.712,0.228,1.324,0.879,171.0,549.0
2015-01-27,Kingston,Jamaica,-76.8167,17.9833,[-77.3167 17.4833 -76.3167 18.4833],0.641,0.184,1.475,0.893,0.69,0.232,1.319,0.841,180.0,520.0
2015-01-28,Kingston,Jamaica,-76.8167,17.9833,[-77.3167 17.4833 -76.3167 18.4833],0.663,0.184,1.631,0.944,0.681,0.24,1.32,0.835,156.0,537.0
2015-01-29,Kingston,Jamaica,-76.8167,17.9833,[-77.3167 17.4833 -76.3167 18.4833],0.642,0.151,1.295,0.829,0.678,0.22,1.272,0.827,188.0,517.0
2015-01-30,Kingston,Jamaica,-76.8167,17.9833,[-77.3167 17.4833 -76.3167 18.4833],0.645,0.151,1.281,0.824,0.723,0.243,1.262,0.837,166.0,541.0
2015-01-31,Kingston,Jamaica,-76.8167,17.9833,[-77.3167 17.4833 -76.3167 18.4833],0.644,0.151,1.128,0.764,0.735,0.251,1.245,0.852,147.0,530.0
2015-02-01,Kingston,Jamaica,-76.8167,17.9833,[-77.3167 17.4833 -76.3167 18.4833],0.643,0.151,1.173,0.769,0.761,0.272,1.266,0.873,163.0,538.0
2015-02-02,Kingston,Jamaica,-76.8167,17.9833,[-77.3167 17.4833 -76.3167 18.4833],0.645,0.151,1.128,0.78,0.74,0.245,1.183,0.859,147.0,542.0
2015-02-03,Kingston,Jamaica,-76.8167,17.9833,[-77.3167 17.4833 -76.3167 18.4833],0.645,0.151,1.128,0.786,0.746,0.272,1.219,0.87,151.0,524.0
2015-02-04,Kingston,Jamaica,-76.8167,17.9833,[-77.3167 17.4833 -76.3167 18.4833],0.618,0.151,1.057,0.741,0.747,0.282,1.228,0.864,142.0,546.0
2015-02-05,Kingston,Jamaica,-76.8167,17.9833,[-77.3167 17.4833 -76.3167 18.4833],0.642,0.151,1.03,0.73,0.731,0.255,1.225,0.844,162.0,517.0
2015-02-06,Kingston,Jamaica,-76.8167,17.9833,[-77.3167 17.4833 -76.3167 18.4833],0.644,0.151,1.057,0.748,0.726,0.262,1.235,0.854,153.0,537.0
2015-02-07,Kingston,Jamaica,-76.8167,17.9833,[-77.3167 17.4833 -76.3167 18.4833],0.644,0.151,1.03,0.685,0.729,0.266,1.23,0.838,132.0,524.0
2015-02-08,Kingston,Jamaica,-76.8167,17.9833,[-77.3167 17.4833 -76.3167 18.4833],0.645,0.151,1.03,0.724,0.72,0.282,1.201,0.825,143.0,540.0
2015-02-09,Kingston,Jamaica,-76.8167,17.9833,[-77.3167 17.4833 -76.3167 18.4833],0.644,0.151,1.028,0.726,0.739,0.257,1.207,0.817,130.0,538.0
2015-02-10,Kingston,Jamaica,-76.8167,17.9833,[-77.3167 17.4833 -76.3167 18.4833],0.644,0.151,1.028,0.726,0.748,0.257,1.211,0.835,130.0,501.0
2015-02-11,Kingston,Jamaica,-76.8167,17.9833,[-77.3167 17.4833 -76.3167 18.4833],0.642,0.138,1.02,0.674,0.754,0.226,1.236,0.828,121.0,516.0
2015-02-12,Kingston,Jamaica,-76.8167,17.9833,[-77.3167 17.4833 -76.3167 18.4833],0.645,0.151,1.02,0.712,0.751,0.234,1.2,0.827,126.0,488.0
2015-02-13,Kingston,Jamaica,-76.8167,17.9833,[-77.3167 17.4833 -76.3167 18.4833],0.766,0.152,1.02,0.809,0.771,0.265,1.204,0.853,94.0,505.0
2015-02-14,Kingston,Jamaica,-76.8167,17.9833,[-77.3167 17.4833 -76.3167 18.4833],0.67,0.152,0.989,0.743,0.715,0.228,1.161,0.813,114.0,486.0
2015-02-15,Kingston,Jamaica,-76.8167,17.9833,[-77.3167 17.4833 -76.3167 18.4833],0.67,0.152,1.02,0.749,0.697,0.227,1.161,0.817,104.0,509.0
2015-02-16,Kingston,Jamaica,-76.8167,17.9833,[-77.3167 17.4833 -76.3167 18.4833],0.67,0.152,1.034,0.796,0.696,0.232,1.201,0.83,108.0,500.0
2015-02-17,Kingston,Jamaica,-76.8167,17.9833,[-77.3167 17.4833 -76.3167 18.4833],0.766,0.152,1.167,0.912,0.744,0.21,1.232,0.847,138.0,506.0
2015-02-18,Kingston,Jamaica,-76.8167,17.9833,[-77.3167 17.4833 -76.3167 18.4833],0.781,0.152,1.167,0.908,0.744,0.222,1.254,0.86,134.0,510.0
2015-02-19,Kingston,Jamaica,-76.8167,17.9833,[-77.3167 17.4833 -76.3167 18.4833],0.693,0.152,1.167,0.895,0.706,0.251,1.223,0.857,152.0,492.0
2015-02-20,Kingston,Jamaica,-76.8167,17.9833,[-77.3167 17.4833 -76.3167 18.4833],0.67,0.129,1.244,0.944,0.713,0.269,1.243,0.881,132.0,512.0
2015-02-21,Kingston,Jamaica,-76.8167,17.9833,[-77.3167 17.4833 -76.3167 18.4833],0.67,0.198,1.434,0.933,0.725,0.26,1.269,0.888,145.0,482.0
2015-02-22,Kingston,Jamaica,-76.8167,17.9833,[-77.3167 17.4833 -76.3167 18.4833],0.67,0.198,1.436,0.948,0.734,0.276,1.317,0.893,138.0,502.0
2015-02-23,Kingston,Jamaica,-76.8167,17.9833,[-77.3167 17.4833 -76.3167 18.4833],0.67,0.243,1.244,0.909,0.722,0.269,1.249,0.879,123.0,488.0
2015-02-24,Kingston,Jamaica,-76.8167,17.9833,[-77.3167 17.4833 -76.3167 18.4833],0.742,0.278,1.253,0.953,0.737,0.254,1.248,0.887,132.0,502.0
2015-02-25,Kingston,Jamaica,-76.8167,17.9833,[-77.3167 17.4833 -76.3167 18.4833],0.641,0.306,1.222,0.915,0.695,0.283,1.254,0.865,145.0,532.0
2015-02-26,Kingston,Jamaica,-76.8167,17.9833,[-77.3167 17.4833 -76.3167 18.4833],0.641,0.266,1.191,0.889,0.693,0.284,1.226,0.856,171.0,528.0
2015-02-27,Kingston,Jamaica,-76.8167,17.9833,[-77.3167 17.4833 -76.3167 18.4833],0.606,0.256,1.233,0.872,0.711,0.284,1.25,0.876,185.0,543.0
2015-02-28,Kingston,Jamaica,-76.8167,17.9833,[-77.3167 17.4833 -76.3167 18.4833],0.649,0.264,1.233,0.866,0.719,0.292,1.277,0.885,196.0,516.0
2015-03-01,Kingston,Jamaica,-76.8167,17.9833,[-77.3167 17.4833 -76.3167 18.4833],0.712,0.264,1.274,0.927,0.748,0.317,1.291,0.907,176.0,532.0
2015-03-02,Kingston,Jamaica,-76.8167,17.9833,[-77.3167 17.4833 -76.3167 18.4833],0.641,0.217,1.242,0.854,0.72,0.284,1.285,0.882,204.0,516.0
2015-03-03,Kingston,Jamaica,-76.8167,17.9833,[-77.3167 17.4833 -76.3167 18.4833],0.606,0.232,1.242,0.831,0.705,0.286,1.283,0.869,203.0,539.0
2015-03-04,Kingston,Jamaica,-76.8167,17.9833,[-77.3167 17.4833 -76.3167 18.4833],0.537,0.217,1.16,0.729,0.682,0.289,1.24,0.852,192.0,530.0
2015-03-05,Kingston,Jamaica,-76.8167,17.9833,[-77.3167 17.4833 -76.3167 18.4833],0.537,0.215,1.186,0.77,0.659,0.269,1.256,0.85,221.0,538.0
2015-03-06,Kingston,Jamaica,-76.8167,17.9833,[-77.3167 17.4833 -76.3167 18.4833],0.559,0.217,1.186,0.762,0.681,0.265,1.269,0.861,205.0,542.0
2015-03-07,Kingston,Jamaica,-76.8167,17.9833,[-77.3167 17.4833 -76.3167 18.4833],0.564,0.217,1.142,0.754,0.693,0.268,1.245,0.843,223.0,525.0
2015-03-08,Kingston,Jamaica,-76.8167,17.9833,[-77.3167 17.4833 -76.3167 18.4833],0.569,0.217,1.103,0.744,0.68,0.253,1.215,0.823,216.0,548.0
2015-03-09,Kingston,Jamaica,-76.8167,17.9833,[-77.3167 17.4833 -76.3167 18.4833],0.59,0.235,1.141,0.754,0.675,0.262,1.205,0.822,236.0,518.0
2015-03-10,Kingston,Jamaica,-76.8167,17.9833,[-77.3167 17.4833 -76.3167 18.4833],0.596,0.235,1.186,0.763,0.69,0.259,1.226,0.831,227.0,538.0
2015-03-11,Kingston,Jamaica,-76.8167,17.9833,[-77.3167 17.4833 -76.3167 18.4833],0.599,0.24,1.129,0.741,0.684,0.264,1.231,0.832,231.0,527.0
2015-03-12,Kingston,Jamaica,-76.8167,17.9833,[-77.3167 17.4833 -76.3167 18.4833],0.599,0.213,1.142,0.748,0.693,0.235,1.273,0.845,247.0,543.0
2015-03-13,Kingston,Jamaica,-76.8167,17.9833,[-77.3167 17.4833 -76.3167 18.4833],0.62,0.235,1.161,0.761,0.691,0.234,1.264,0.849,235.0,541.0
2015-03-14,Kingston,Jamaica,-76.8167,17.9833,[-77.3167 17.4833 -76.3167 18.4833],0.605,0.235,1.109,0.75,0.657,0.205,1.228,0.831,216.0,504.0
2015-03-15,Kingston,Jamaica,-76.8167,17.9833,[-77.3167 17.4833 -76.3167 18.4833],0.59,0.196,1.109,0.728,0.638,0.167,1.201,0.807,219.0,518.0
2015-03-16,Kingston,Jamaica,-76.8167,17.9833,[-77.3167 17.4833 -76.3167 18.4833],0.59,0.196,1.113,0.743,0.64,0.182,1.191,0.808,235.0,492.0
2015-03-17,Kingston,Jamaica,-76.8167,17.9833,[-77.3167 17.4833 -76.3167 18.4833],0.596,0.235,1.157,0.772,0.634,0.189,1.171,0.804,207.0,509.0
2015-03-18,Kingston,Jamaica,-76.8167,17.9833,[-77.3167 17.4833 -76.3167 18.4833],0.594,0.239,1.086,0.751,0.636,0.216,1.192,0.813,212.0,492.0
2015-03-19,Kingston,Jamaica,-76.8167,17.9833,[-77.3167 17.4833 -76.3167 18.4833],0.605,0.235,1.086,0.769,0.626,0.192,1.188,0.808,210.0,515.0
2015-03-20,Kingston,Jamaica,-76.8167,17.9833,[-77.3167 17.4833 -76.3167 18.4833],0.59,0.157,0.953,0.683,0.632,0.194,1.166,0.8,198.0,507.0
2015-03-21,Kingston,Jamaica,-76.8167,17.9833,[-77.3167 17.4833 -76.3167 18.4833],0.594,0.157,0.985,0.696,0.622,0.186,1.173,0.793,223.0,513.0
2015-03-22,Kingston,Jamaica,-76.8167,17.9833,[-77.3167 17.4833 -76.3167 18.4833],0.59,0.152,1.086,0.706,0.619,0.197,1.185,0.795,215.0,517.0
2015-03-23,Kingston,Jamaica,-76.8167,17.9833,[-77.3167 17.4833 -76.3167 18.4833],0.554,0.152,1.086,0.702,0.639,0.222,1.177,0.815,209.0,497.0
2015-03-24,Kingston,Jamaica,-76.8167,17.9833,[-77.3167 17.4833 -76.3167 18.4833],0.543,0.078,0.982,0.681,0.639,0.177,1.169,0.802,191.0,521.0
2015-03-25,Kingston,Jamaica,-76.8167,17.9833,[-77.3167 17.4833 -76.3167 18.4833],0.543,0.078,0.958,0.668,0.641,0.181,1.175,0.789,201.0,491.0
2015-03-26,Kingston,Jamaica,-76.8167,17.9833,[-77.3167 17.4833 -76.3167 18.4833],0.521,0.046,0.953,0.658,0.635,0.194,1.168,0.785,180.0,511.0
2015-03-27,Kingston,Jamaica,-76.8167,17.9833,[-77.3167 17.4833 -76.3167 18.4833],0.59,0.065,0.968,0.679,0.636,0.197,1.149,0.774,159.0,497.0
2015-03-28,Kingston,Jamaica,-76.8167,17.9833,[-77.3167 17.4833 -76.3167 18.4833],0.594,0.078,0.958,0.678,0.63,0.188,1.151,0.754,176.0,511.0
2015-03-29,Kingston,Jamaica,-76.8167,17.9833,[-77.3167 17.4833 -76.3167 18.4833],0.594,0.134,0.953,0.681,0.62,0.184,1.144,0.748,188.0,539.0
2015-03-30,Kingston,Jamaica,-76.8167,17.9833,[-77.3167 17.4833 -76.3167 18.4833],0.62,0.255,0.967,0.722,0.626,0.207,1.117,0.74,195.0,536.0
2015-03-31,Kingston,Jamaica,-76.8167,17.9833,[-77.3167 17.4833 -76.3167 18.4833],0.62,0.239,0.958,0.696,0.612,0.205,1.116,0.739,198.0,551.0
2015-04-01,Kingston,Jamaica,-76.8167,17.9833,[-77.3167 17.4833 -76.3167 18.4833],0.594,0.234,0.953,0.669,0.629,0.196,1.107,0.734,203.0,525.0
2015-04-02,Kingston,Jamaica,-76.8167,17.9833,[-77.3167 17.4833 -76.3167 18.4833],0.608,0.152,0.993,0.667,0.606,0.178,1.098,0.711,179.0,541.0
2015-04-03,Kingston,Jamaica,-76.8167,17.9833,[-77.3167 17.4833 -76.3167 18.4833],0.636,0.205,0.993,0.651,0.631,0.185,1.101,0.708,189.0,524.0
2015-04-04,Kingston,Jamaica,-76.8167,17.9833,[-77.3167 17.4833 -76.3167 18.4833],0.671,0.26,1.023,0.663,0.632,0.202,1.07,0.702,188.0,544.0
2015-04-05,Kingston,Jamaica,-76.8167,17.9833,[-77.3167 17.4833 -76.3167 18.4833],0.618,0.277,0.967,0.617,0.64,0.206,1.051,0.692,178.0,538.0
2015-04-06,Kingston,Jamaica,-76.8167,17.9833,[-77.3167 17.4833 -76.3167 18.4833],0.618,0.277,0.96,0.637,0.672,0.228,1.073,0.714,192.0,547.0
2015-04-07,Kingston,Jamaica,-76.8167,17.9833,[-77.3167 17.4833 -76.3167 18.4833],0.618,0.217,0.993,0.645,0.643,0.202,1.027,0.695,211.0,551.0
2015-04-08,Kingston,Jamaica,-76.8167,17.9833,[-77.3167 17.4833 -76.3167 18.4833],0.608,0.22,0.96,0.635,0.645,0.234,1.008,0.692,219.0,531.0
2015-04-09,Kingston,Jamaica,-76.8167,17.9833,[-77.3167 17.4833 -76.3167 18.4833],0.608,0.22,0.993,0.635,0.627,0.221,1.017,0.687,214.0,553.0
2015-04-10,Kingston,Jamaica,-76.8167,17.9833,[-77.3167 17.4833 -76.3167 18.4833],0.618,0.236,1.005,0.653,0.607,0.211,0.998,0.679,230.0,522.0
2015-04-11,Kingston,Jamaica,-76.8167,17.9833,[-77.3167 17.4833 -76.3167 18.4833],0.614,0.22,0.993,0.642,0.603,0.2,1.002,0.675,222.0,541.0
2015-04-12,Kingston,Jamaica,-76.8167,17.9833,[-77.3167 17.4833 -76.3167 18.4833],0.597,0.205,0.967,0.612,0.591,0.2,1.007,0.672,219.0,528.0
2015-04-13,Kingston,Jamaica,-76.8167,17.9833,[-77.3167 17.4833 -76.3167 18.4833],0.588,0.191,0.993,0.599,0.591,0.211,1.022,0.671,240.0,544.0
2015-04-14,Kingston,Jamaica,-76.8167,17.9833,[-77.3167 17.4833 -76.3167 18.4833],0.552,0.189,0.952,0.582,0.595,0.208,1.025,0.675,235.0,540.0
2015-04-15,Kingston,Jamaica,-76.8167,17.9833,[-77.3167 17.4833 -76.3167 18.4833],0.552,0.189,0.952,0.577,0.603,0.214,1.036,0.674,216.0,502.0
2015-04-16,Kingston,Jamaica,-76.8167,17.9833,[-77.3167 17.4833 -76.3167 18.4833],0.568,0.189,0.985,0.594,0.612,0.216,1.058,0.682,230.0,515.0
2015-04-17,Kingston,Jamaica,-76.8167,17.9833,[-77.3167 17.4833 -76.3167 18.4833],0.568,0.189,0.952,0.582,0.63,0.232,1.038,0.687,249.0,487.0
2015-04-18,Kingston,Jamaica,-76.8167,17.9833,[-77.3167 17.4833 -76.3167 18.4833],0.552,0.143,0.977,0.572,0.656,0.231,1.078,0.695,222.0,504.0
2015-04-19,Kingston,Jamaica,-76.8167,17.9833,[-77.3167 17.4833 -76.3167 18.4833],0.492,0.131,0.87,0.532,0.631,0.209,1.043,0.675,238.0,488.0
2015-04-20,Kingston,Jamaica,-76.8167,17.9833,[-77.3167 17.4833 -76.3167 18.4833],0.474,0.131,0.898,0.555,0.601,0.201,1.032,0.671,244.0,508.0
2015-04-21,Kingston,Jamaica,-76.8167,17.9833,[-77.3167 17.4833 -76.3167 18.4833],0.504,0.136,0.943,0.548,0.55,0.173,1.009,0.636,239.0,495.0
2015-04-22,Kingston,Jamaica,-76.8167,17.9833,[-77.3167 17.4833 -76.3167 18.4833],0.504,0.136,0.907,0.545,0.556,0.147,0.988,0.622,251.0,504.0
2015-04-23,Kingston,Jamaica,-76.8167,17.9833,[-77.3167 17.4833 -76.3167 18.4833],0.53,0.136,0.943,0.556,0.547,0.132,1.006,0.615,267.0,506.0
2015-04-24,Kingston,Jamaica,-76.8167,17.9833,[-77.3167 17.4833 -76.3167 18.4833],0.526,0.15,0.943,0.565,0.566,0.141,0.993,0.616,283.0,489.0
2015-04-25,Kingston,Jamaica,-76.8167,17.9833,[-77.3167 17.4833 -76.3167 18.4833],0.499,0.133,0.816,0.535,0.56,0.13,0.98,0.609,276.0,509.0
2015-04-26,Kingston,Jamaica,-76.8167,17.9833,[-77.3167 17.4833 -76.3167 18.4833],0.52,0.15,0.898,0.562,0.551,0.114,0.973,0.596,292.0,480.0
2015-04-27,Kingston,Jamaica,-76.8167,17.9833,[-77.3167 17.4833 -76.3167 18.4833],0.53,0.136,0.898,0.566,0.585,0.142,1.004,0.62,264.0,501.0
2015-04-28,Kingston,Jamaica,-76.8167,17.9833,[-77.3167 17.4833 -76.3167 18.4833],0.53,0.165,0.855,0.558,0.578,0.144,0.992,0.614,247.0,489.0
2015-04-29,Kingston,Jamaica,-76.8167,17.9833,[-77.3167 17.4833 -76.3167 18.4833],0.518,0.153,0.816,0.557,0.57,0.14,0.966,0.609,263.0,503.0
2015-04-30,Kingston,Jamaica,-76.8167,17.9833,[-77.3167 17.4833 -76.3167 18.4833],0.511,0.153,0.816,0.554,0.547,0.139,0.954,0.594,282.0,533.0
2015-05-01,Kingston,Jamaica,-76.8167,17.9833,[-77.3167 17.4833 -76.3167 18.4833],0.511,0.165,0.816,0.557,0.542,0.151,0.954,0.595,290.0,530.0
2015-05-02,Kingston,Jamaica,-76.8167,17.9833,[-77.3167 17.4833 -76.3167 18.4833],0.511,0.18,0.848,0.583,0.548,0.15,0.979,0.612,295.0,548.0
2015-05-03,Kingston,Jamaica,-76.8167,17.9833,[-77.3167 17.4833 -76.3167 18.4833],0.523,0.201,0.868,0.597,0.563,0.164,0.988,0.619,314.0,520.0
2015-05-04,Kingston,Jamaica,-76.8167,17.9833,[-77.3167 17.4833 -76.3167 18.4833],0.63,0.246,0.954,0.663,0.582,0.179,1.012,0.639,282.0,536.0
2015-05-05,Kingston,Jamaica,-76.8167,17.9833,[-77.3167 17.4833 -76.3167 18.4833],0.646,0.323,1.021,0.725,0.602,0.212,1.053,0.676,287.0,519.0
2015-05-06,Kingston,Jamaica,-76.8167,17.9833,[-77.3167 17.4833 -76.3167 18.4833],0.638,0.31,1.034,0.734,0.607,0.22,1.065,0.691,288.0,545.0
2015-05-07,Kingston,Jamaica,-76.8167,17.9833,[-77.3167 17.4833 -76.3167 18.4833],0.659,0.323,1.08,0.765,0.613,0.247,1.079,0.705,276.0,531.0
2015-05-08,Kingston,Jamaica,-76.8167,17.9833,[-77.3167 17.4833 -76.3167 18.4833],0.672,0.324,1.147,0.789,0.593,0.243,1.073,0.704,275.0,543.0
2015-05-09,Kingston,Jamaica,-76.8167,17.9833,[-77.3167 17.4833 -76.3167 18.4833],0.695,0.323,1.147,0.793,0.585,0.24,1.069,0.703,267.0,544.0
2015-05-10,Kingston,Jamaica,-76.8167,17.9833,[-77.3167 17.4833 -76.3167 18.4833],0.672,0.31,1.139,0.776,0.598,0.264,1.066,0.708,275.0,530.0
2015-05-11,Kingston,Jamaica,-76.8167,17.9833,[-77.3167 17.4833 -76.3167 18.4833],0.639,0.287,1.139,0.75,0.601,0.265,1.068,0.712,267.0,549.0
2015-05-12,Kingston,Jamaica,-76.8167,17.9833,[-77.3167 17.4833 -76.3167 18.4833],0.661,0.305,1.105,0.76,0.592,0.26,1.025,0.699,285.0,520.0
2015-05-13,Kingston,Jamaica,-76.8167,17.9833,[-77.3167 17.4833 -76.3167 18.4833],0.695,0.306,1.162,0.789,0.608,0.263,1.042,0.712,269.0,540.0
2015-05-14,Kingston,Jamaica,-76.8167,17.9833,[-77.3167 17.4833 -76.3167 18.4833],0.732,0.318,1.163,0.8,0.62,0.265,1.053,0.718,242.0,528.0
2015-05-15,Kingston,Jamaica,-76.8167,17.9833,[-77.3167 17.4833 -76.3167 18.4833],0.735,0.337,1.221,0.811,0.618,0.233,1.074,0.707,246.0,544.0
2015-05-16,Kingston,Jamaica,-76.8167,17.9833,[-77.3167 17.4833 -76.3167 18.4833],0.782,0.385,1.188,0.818,0.631,0.246,1.064,0.709,236.0,539.0
2015-05-17,Kingston,Jamaica,-76.8167,17.9833,[-77.3167 17.4833 -76.3167 18.4833],0.783,0.385,1.192,0.812,0.579,0.219,1.033,0.674,212.0,499.0
2015-05-18,Kingston,Jamaica,-76.8167,17.9833,[-77.3167 17.4833 -76.3167 18.4833],0.808,0.391,1.221,0.825,0.572,0.221,1.016,0.663,207.0,512.0
2015-05-19,Kingston,Jamaica,-76.8167,17.9833,[-77.3167 17.4833 -76.3167 18.4833],0.808,0.385,1.221,0.822,0.604,0.218,0.99,0.662,209.0,484.0
2015-05-20,Kingston,Jamaica,-76.8167,17.9833,[-77.3167 17.4833 -76.3167 18.4833],0.783,0.259,1.154,0.754,0.562,0.179,0.94,0.621,181.0,500.0
2015-05-21,Kingston,Jamaica,-76.8167,17.9833,[-77.3167 17.4833 -76.3167 18.4833],0.672,0.292,0.983,0.681,0.56,0.196,0.895,0.612,183.0,483.0
2015-05-22,Kingston,Jamaica,-76.8167,17.9833,[-77.3167 17.4833 -76.3167 18.4833],0.582,0.226,0.941,0.617,0.532,0.17,0.885,0.589,176.0,509.0
2015-05-23,Kingston,Jamaica,-76.8167,17.9833,[-77.3167 17.4833 -76.3167 18.4833],0.555,0.215,0.92,0.572,0.524,0.164,0.906,0.581,152.0,494.0
2015-05-24,Kingston,Jamaica,-76.8167,17.9833,[-77.3167 17.4833 -76.3167 18.4833],0.548,0.253,0.92,0.57,0.535,0.158,0.915,0.58,147.0,505.0
2015-05-25,Kingston,Jamaica,-76.8167,17.9833,[-77.3167 17.4833 -76.3167 18.4833],0.548,0.287,0.92,0.587,0.504,0.148,0.888,0.567,141.0,506.0
2015-05-26,Kingston,Jamaica,-76.8167,17.9833,[-77.3167 17.4833 -76.3167 18.4833],0.548,0.253,0.876,0.592,0.494,0.148,0.873,0.567,147.0,491.0
2015-05-27,Kingston,Jamaica,-76.8167,17.9833,[-77.3167 17.4833 -76.3167 18.4833],0.481,0.225,0.821,0.528,0.475,0.139,0.86,0.55,132.0,510.0
2015-05-28,Kingston,Jamaica,-76.8167,17.9833,[-77.3167 17.4833 -76.3167 18.4833],0.453,0.225,0.806,0.515,0.459,0.14,0.832,0.532,137.0,481.0
2015-05-29,Kingston,Jamaica,-76.8167,17.9833,[-77.3167 17.4833 -76.3167 18.4833],0.453,0.21,0.786,0.498,0.467,0.134,0.806,0.517,132.0,502.0
2015-05-30,Kingston,Jamaica,-76.8167,17.9833,[-77.3167 17.4833 -76.3167 18.4833],0.41,0.182,0.738,0.476,0.458,0.156,0.803,0.527,116.0,488.0
2015-05-31,Kingston,Jamaica,-76.8167,17.9833,[-77.3167 17.4833 -76.3167 18.4833],0.346,0.18,0.649,0.435,0.451,0.148,0.791,0.52,106.0,503.0
2015-06-01,Kingston,Jamaica,-76.8167,17.9833,[-77.3167 17.4833 -76.3167 18.4833],0.346,0.162,0.649,0.424,0.448,0.162,0.785,0.514,109.0,533.0
2015-06-02,Kingston,Jamaica,-76.8167,17.9833,[-77.3167 17.4833 -76.3167 18.4833],0.32,0.108,0.616,0.377,0.432,0.143,0.774,0.496,117.0,533.0
2015-06-03,Kingston,Jamaica,-76.8167,17.9833,[-77.3167 17.4833 -76.3167 18.4833],0.31,0.08,0.641,0.376,0.412,0.103,0.756,0.478,137.0,548.0
2015-06-04,Kingston,Jamaica,-76.8167,17.9833,[-77.3167 17.4833 -76.3167 18.4833],0.304,0.079,0.616,0.378,0.407,0.116,0.746,0.466,152.0,520.0
2015-06-05,Kingston,Jamaica,-76.8167,17.9833,[-77.3167 17.4833 -76.3167 18.4833],0.228,0.011,0.641,0.345,0.393,0.101,0.751,0.455,130.0,535.0
2015-06-06,Kingston,Jamaica,-76.8167,17.9833,[-77.3167 17.4833 -76.3167 18.4833],0.335,0.141,0.691,0.419,0.405,0.115,0.768,0.466,148.0,519.0
2015-06-07,Kingston,Jamaica,-76.8167,17.9833,[-77.3167 17.4833 -76.3167 18.4833],0.33,0.105,0.691,0.422,0.402,0.113,0.763,0.466,169.0,544.0
2015-06-08,Kingston,Jamaica,-76.8167,17.9833,[-77.3167 17.4833 -76.3167 18.4833],0.33,0.141,0.709,0.436,0.402,0.127,0.764,0.463,182.0,531.0
2015-06-09,Kingston,Jamaica,-76.8167,17.9833,[-77.3167 17.4833 -76.3167 18.4833],0.385,0.141,0.713,0.467,0.421,0.13,0.724,0.462,201.0,540.0
2015-06-10,Kingston,Jamaica,-76.8167,17.9833,[-77.3167 17.4833 -76.3167 18.4833],0.458,0.141,0.713,0.486,0.416,0.127,0.718,0.455,203.0,541.0
2015-06-11,Kingston,Jamaica,-76.8167,17.9833,[-77.3167 17.4833 -76.3167 18.4833],0.455,0.141,0.709,0.469,0.422,0.136,0.714,0.457,218.0,525.0
2015-06-12,Kingston,Jamaica,-76.8167,17.9833,[-77.3167 17.4833 -76.3167 18.4833],0.458,0.141,0.709,0.47,0.427,0.128,0.723,0.465,220.0,546.0
2015-06-13,Kingston,Jamaica,-76.8167,17.9833,[-77.3167 17.4833 -76.3167 18.4833],0.443,0.125,0.713,0.465,0.42,0.11,0.743,0.466,240.0,516.0
2015-06-14,Kingston,Jamaica,-76.8167,17.9833,[-77.3167 17.4833 -76.3167 18.4833],0.452,0.141,0.713,0.472,0.432,0.121,0.777,0.478,233.0,537.0
2015-06-15,Kingston,Jamaica,-76.8167,17.9833,[-77.3167 17.4833 -76.3167 18.4833],0.493,0.141,0.748,0.482,0.454,0.127,0.795,0.492,248.0,525.0
2015-06-16,Kingston,Jamaica,-76.8167,17.9833,[-77.3167 17.4833 -76.3167 18.4833],0.493,0.141,0.75,0.49,0.485,0.139,0.818,0.508,274.0,540.0
2015-06-17,Kingston,Jamaica,-76.8167,17.9833,[-77.3167 17.4833 -76.3167 18.4833],0.51,0.155,0.763,0.511,0.498,0.155,0.828,0.525,267.0,535.0